STARLINK-31448 (59611 NORAD) Tracking and Keplerian Element Data

This shows tracking and keplerian element data for the satellite.

Feedback or suggestion? Click here.




ElementValue
Catalog59611
NameSTARLINK-31448
Epoch Orbit750
Epoch Day160.18271904
Epoch Year2024
RAAN87.9948
Inclination42.9992
Eccentricity2.5E-05
Argument of Perigee283.6939
Mean Anonmoly76.389
Mean Motion15.40718899
Decay Rate6.257E-05
L11 59611U 24080L 24160.18271904 .00006257 00000+0 15682-3 0 9995
L22 59611 42.9992 87.9948 0000250 283.6939 76.3890 15.40718899 7508



Live tracking and technical data element details for STARLINK-31448 (NORAD 59611). STARLINK-31448 can be tracked NOW for your location showing map with azimuth and elevation plus other details from your city location.







IsCatalogInMostPopularTable: catalog: 59611, numindb: 11
Update: records affected: 1



GetName: 59611 STARLINK-31448

Hit Count: updated at: Fri, 14 Jun 2024 19:47:37 GMT